PSLV R/B, 44862

Orbit data source: Space-Track

PSLV R/B, 44862 is space debris in LEO originally from a launch on Wed, 11 Dec 2019 UTC launched from the Sirharikota (SRI). Debris objects in space refer to the collection of defunct objects orbiting the Earth. Examples of debris include non-operational satellites, rocket bodies, and fragments generated from explosions, collisions, or faulty payload assembly.

Loading next visibility...
Identifier
44862, 2019-089L
Orbit
LEO
Last TLE update
19 hours ago
Origin
Manufacturer
VSSC/LPSC
Mission
Spacecraft
Bus & Motor
PS-4, Unknown motor
Mass
920 kg wet, 920 kg dry
Launch date (UTC)
2019-12-11 (5 years ago)
Launch vehicle
Unknown
Launch site
Sirharikota (SRI)
Object type
Payload
Rocket body
Debris
Shape & HBR
Cyl + Cyl + 2 Nozzle, 3.238 m
Radar Cross Section
6.185 m², Large (>1 m²)

Expand to show TLE details & history

TLE from 19 hours ago
0 PSLV R/B
1 44862U 19089L   25128.60897715  .00015238  00000-0  45060-3 0  9999
2 44862  36.9713  93.6994 0025134 226.1139 133.7538 15.33927292299243
Epoch: 2025-05-08T14:36Z
Definitive object data (Epoch: 2025-05-08T14:36:55.625Z)
Latitude
-0.00001°
Longitude
7.79059°
Altitude
475.133 km
Speed
7.624 km/s
True Right ascension
06h 14m 47s
True Declination
0° 00' 00"
Sunlit
Object was in daylight at TLE epoch
Visualization TLE readout
Latitude
-27.18399°
Longitude
-39.74901°
Altitude
466.765 km
Speed
7.636 km/s
Apparent Right ascension
04h 03m 56s
Apparent Declination
-34° 16' 48"
Sunlit
Object is in daylight
Visualization observer readout
Local Sidereal Time
17:18:09
Azimuth
74.962° E
Elevation
-74.2°
Doppler factor
1
Orbital elements
Apogee altitude
484.263 km
Perigee altitude
449.854 km
Semi-major axis
6,845.195 km
Eccentricity
0.0025134
Inclination
36.9713°
RAAN
93.6994°
Arg. of periapsis
226.1139°
True anomaly
133.96139°
Mean anomaly
133.7538°
Eccentric anomaly
133.85764°
Mean motion
3.83234 °/min
BSTAR
0.0004506
Orbital period
93.94 mins
Loading maneuver chart data...
Loading SW <> Apogee altitude chart data...
Loading historical data...
Loading historical data...
Loading historical data...
Loading historical data...
Loading historical data...
Loading historical data...
Loading historical data...

PSLV R/B Visibility forecast

Observer location: undefined°, undefined°

Span
Click to sort rows by Start time (UTC) header in descending order
Start Az.
Max El. time (UTC)
Max El. Az.
Max El.
End time (UTC)
End Az.
5 mins2025-05-10 01:13:52.818Z208.276° SW2025-05-10 01:15:52.818Z165.598° S24.124°2025-05-10 01:18:52.818Z104.685° ESE
5 mins2025-05-10 02:52:52.818Z240.101° WSW2025-05-10 02:54:52.818Z164.466° S37.849°2025-05-10 02:57:52.818Z100.633° ESE
5 mins2025-05-10 04:31:52.818Z245.445° WSW2025-05-10 04:33:52.818Z171.122° S33.197°2025-05-10 04:36:52.818Z119.669° SE
|